Powrót do katalogu

COSMOS 1293

AktywnyMilitariaLEO
NORAD 12642·PAYLOAD·🇷🇺 Russia

Wystrzelony Aug 6, 1981 z Plesetsk Cosmodrome

Loading…

Następne Przeloty (najbliższe 24 godziny)

TLE

ŚwieżeSource: Space-Track

Epoka: Sep 14, 2026, 14:46 UTC

1 12642U 81074G   26257.61563638  .00000000  00000-0  94954-4 0  9990
2 12642  74.0332 301.4828 0036355 224.3834 303.8851 12.56721125 69308

Śledź COSMOS 1293 w czasie rzeczywistym z AllMySat

Download on the App Store